Regional Weather Roundup
Issued by NWS Pendleton, OR

Home | Current Version | Previous Version | Text Only | Print | Product List | Glossary On
Versions: 1 2 3 4 5 6 7 8 9 10 11 12 13 14 15 16 17 18 19 20 21 22 23 24 25 26 27 28 29 30 31 32 33 34 35 36 37 38 39 40 41 42 43 44 45 46 47 48 49 50
000
ASUS46 KPDT 270225
RWRPDT
PENDLETON REGIONAL WEATHER ROUNDUP
NATIONAL WEATHER SERVICE PENDLETON OREGON
700 PM PDT THU MAY 26 2016

NOTE: FAIR INDICATES FEW OR NO CLOUDS BELOW 12,000 FEET WITH NO
SIGNIFICANT WEATHER AND/OR OBSTRUCTIONS TO VISIBILITY.

# INDICATES UNOFFICIAL STATION AND DATA

WAZ520-270310-
EAST SLOPES OF WASHINGTON CASCADES

CITY            SKY/WX      TMP DP  RH  WIND    PRES   REMARKS
#CLE ELUM HS    N/A         51  40  66  W9      30.02S
#CLE ELUM 2NW   N/A         49  38  66  SW3     N/A
#GLENWOOD       N/A         55  42  61  S6      30.03S
#MANASTASH CYN  N/A         52  36  54  W1      29.98R
#NELSON 3SW     N/A         48  38  68  CALM    30.22S
#NILE           N/A         54  40  59  W5      29.27F
#RONALD 2NW     N/A         50  N/A N/A N3      29.94S
#TEANAWAY 4NE   N/A         52  42  69  SW12    N/A
#TROUT LAKE 1NE N/A         53  41  64  W12G24  30.07S
#TROUT LAKE 1E  N/A         54  41  61  CALM    30.05F
$$

WAZ521-270310-
SIMCOE HIGHLANDS

CITY            SKY/WX      TMP DP  RH  WIND    PRES   REMARKS
#CENTERVILLE 1SWN/A         53  40  61  W18     30.00S
#GOLDENDALE 1NE N/A         56  29  35  SW7     N/A
#GOLDENDALE 4W  N/A         55  46  72  W28     30.07S
#GOODNOE HILLS  N/A         58  42  55  NW31    29.90F
#LYLE 6NE       N/A         53  43  69  SW12    30.04F
$$

WAZ026-270310-
KITTITAS VALLEY

CITY            SKY/WX      TMP DP  RH  WIND    PRES   REMARKS
ELLENSBURG AP   CLOUDY      56  39  53  NW30G46 29.98S
#ELLENSBURG CWU N/A         54  40  59  N20     29.91S
#ELLENSBURG 3NE N/A         53  41  64  N16G35  29.98R
#ELLENSBURG     N/A         56  43  62  NW10    N/A
#ELLENSBURG 1E  N/A         54  N/A N/A NW5     N/A
#ELLENSBURG 13S N/A         62  38  41  E8      N/A
#KITTITAS 4N    N/A         53  39  59  NW22G29 29.99R
#KITTITAS 3S    N/A         56  42  59  NW13G26 29.94R
#THORP 6N       N/A         49  40  71  NW20G36 30.01R WCI 42
$$

WAZ027-270310-
YAKIMA VALLEY

CITY            SKY/WX      TMP DP  RH  WIND    PRES   REMARKS
SUNNYSIDE AP    SUNNY       65  39  38  W17G24  29.93
YAKIMA AIRPORT  MOCLDY      66  35  32  W13     29.98R
YAKIMA-VAGABOND SUNNY       61  37  41  NW16    29.96R
#DONALD 2NE     N/A         65  -1   7  W2      28.80R
#GRANDVIEW      N/A         68  36  31  W3      29.92R
#MABTON         N/A         70  43  38  NW13    29.92R
#NACHES 2SW     N/A         57  41  55  W13     29.97S
#TERRACE HTS    N/A         63  39  41  N10     29.90R
#TOPPENISH      N/A         65  39  38  CALM    29.85R
#WEST VALLEY    N/A         62  37  39  S6      29.93R
#W YAKIMA       N/A         60  38  44  W7      29.95R
#WHITE SWAN 5E  N/A         64  40  41  SW14G26 29.94R
#WILEY CITY 3W  N/A         60  33  36  CALM    29.94S
$$

WAZ028-270310-
LOWER COLUMBIA BASIN...WASHINGTON

CITY            SKY/WX      TMP DP  RH  WIND    PRES   REMARKS
PASCO           PTCLDY      70  41  35  SW20    29.91F
PROSSER AWOS    N/A         68  39  35  W17     29.95
RICHLAND AWOS   PTCLDY      69  42  37  S16G25  29.91R
#BENTON CITY    N/A         69  42  37  S12G25  29.79F
#CONNELL 5N     N/A         69  43  39  SW6     29.88S
#CONNELL 5NW    N/A         66  43  43  W3      29.85S
#ELTOPIA 6NW    N/A         70  44  39  W1      28.89R
#KAHLOTUS       N/A         67  38  34  W9      29.89R
#KENNEWICK 3S   N/A         65  44  46  N13G24  29.91S
#PATERSON       N/A         64  45  50  NW14G26 29.91F
#SAGEMOOR 2W    N/A         65  46  50  SW7     29.76R
#TOUCHET 2S     N/A         65  42  43  SW18G28 29.89F
#WEST PASCO     N/A         69  45  42  S7      29.95F
$$

WAZ029-270310-
FOOTHILLS OF THE BLUES...WASHINGTON

CITY            SKY/WX      TMP DP  RH  WIND    PRES   REMARKS
WALLA WALLA AP  SUNNY       65  33  30  SW13    29.96S
#CLYDE 6NW      N/A         66  39  37  SW15    29.90S
#DAYTON SCHOOL  N/A         64  31  29  S7      29.96F
#LOWDEN 2SE     N/A         67  43  42  W8      29.91S
#PLEASANT VIEW 1N/A         63  39  41  S10     29.94S
#PRESCOTT       N/A         66  42  42  SW1     29.91S
#SUDBURY        N/A         62  N/A N/A CALM    N/A
#WHITMAN COLLEGEN/A         66  39  37  S10     29.98S
#WAITSBURG 8N   N/A         61  15  16  S8      29.76S
#WALLA WALLA U  N/A         67  41  39  S2      29.93S
#WHITMAN MISSIONN/A         66  42  42  W5      29.94S
$$

WAZ030-270310-
BLUE MOUNTAINS...WASHINGTON

CITY            SKY/WX      TMP DP  RH  WIND    PRES   REMARKS
#DIXIE 5SE      N/A         56  33  42  SW13    29.92F
$$

ORZ009-041-WAZ024-270310-
COLUMBIA RIVER GORGE

CITY            SKY/WX      TMP DP  RH  WIND    PRES   REMARKS
HOOD RIVER AP   CLOUDY      57  43  59  W6      30.13F
THE DALLES AP   PTCLDY      61  41  48  W25G37  30.08S
#ARLINGTON AIRPON/A         58  42  55  W26G35  29.98S
#CELILO DOT     N/A         61  41  48  W14     N/A
#LYLE           N/A         59  46  62  W29     30.09F
#MARYHILL 2W    N/A         56  45  66  W2      N/A
#MOSIER 1S      N/A         57  32  38  W6      30.06F
#MURDOCK        N/A         59  46  62  W20G31  30.05S
#RUFUS DOT      N/A         63  42  46  W30     N/A
#SMITHVILLE     N/A         60  44  55  W23G31  29.99R

$$

ORZ510-270310-
NORTH CENTRAL OREGON

CITY            SKY/WX      TMP DP  RH  WIND    PRES   REMARKS
#ANTELOPE       N/A         54  37  52  NW7     29.92R
#CHENOWITH 1W   N/A         52  40  63  NW44    N/A
#COW CYN RST AREN/A         54  N/A N/A NW8     N/A
#DUFUR 9E       N/A         50  40  68  NW24G35 30.12R
#GRASS VALLEY   N/A         49  40  71  W2      N/A
#GRASS VALLEY 1SN/A         51  40  66  NW14    30.01S
#KENT DOT       N/A         53  29  39  N17     N/A
#MAUPIN SCHOOL  N/A         58  40  51  W16G29  30.09R
#MORO SCHOOL    N/A         54  46  74  W12G24  30.07R
#SHANIKO 5WSW   N/A         51  28  41  W22     N/A
#SHANIKO 4NW    N/A         49  -56  1  W17G28  30.06F WCI 43
#TYGH VALLEY 2NEN/A         59  42  53  SW7     30.04R
#WAPANITIA AIRPON/A         54  40  59  W14G25  30.06S
#WASCO DOT      N/A         57  39  51  W21     N/A
#WASCO AIRPORT  N/A         56  38  51  W28     N/A
#WASCO 5NE      N/A         53  41  64  SW17G32 30.02R
$$

ORZ511-270310-
CENTRAL OREGON

CITY            SKY/WX      TMP DP  RH  WIND    PRES   REMARKS
BEND AIRPORT    SUNNY       55  32  41  NW16    30.07
MADRAS AIRPORT  PTCLDY      63  39  41  N18G29  30.08S
PRINEVILLE AP   SUNNY       59  36  42  NW17    30.06R
REDMOND AIRPORT SUNNY       57  33  40  NW18G26 30.06R
#ASHWOOD SCHOOL N/A         55  35  47  W7      30.03S
#BEND 1SW       N/A         55  33  43  N3      N/A
#BEND-AWBREY    N/A         58  37  45  N5      30.02R
#BEND-KIM LN    N/A         56  37  49  N1      30.04R
#CULVER         N/A         60  37  42  CALM    29.99R
#CULVER 8W      N/A         56  35  45  W5      30.06R
#LAKE BILLY CHINN/A         58  N/A N/A NW5     30.13R
#MADRAS 4S      N/A         57  15  19  N12     30.14R
#POWELL BUTTE   N/A         56  40  55  N6      29.94R
#PRINEVILLE 3N  N/A         55  39  55  N13     30.02R
#WARM SPRINGS   N/A         59  38  45  CALM    30.04R

$$


ORZ509-270310-
EAST SLOPES OF OREGON CASCADES

CITY            SKY/WX      TMP DP  RH  WIND    PRES   REMARKS
SISTERS AWOS    N/A         52  36  54  W30G40  30.05S
#BLUE BOX PASS  N/A         40  N/A N/A SW3     N/A
#CAMP SHERMAN   N/A         51  36  56  VRB1    30.18R
#LA PINE DOT    N/A         53  26  35  NW16    N/A
#LA PINE 4NW    N/A         51  36  56  W5      30.09R
#LAVA BUTTE DOT N/A         58  25  28  CALM    N/A
#SISTERS AIRPOR N/A         52  42  69  N14G28  30.17S
#SISTERS ODOT   N/A         53  N/A N/A SW14    N/A
#SISTERS 1NW    N/A         54  34  47  N10     N/A
#SISTERS 3N     N/A         52  32  46  W3      30.08R
#SUNRIVER       N/A         55  35  47  SW2     30.04R
#SUTTLE LK DOT  N/A         44  36  73  N7      N/A
#TUMALO 3W      N/A         53  35  50  N7      29.91R
#WANOGA BUTTE D N/A         50  24  36  W3      N/A

$$

ORZ044-270310-
LOWER COLUMBIA BASIN...OREGON

CITY            SKY/WX      TMP DP  RH  WIND    PRES   REMARKS
HERMISTON       N/A         N/A N/A N/A MISG    N/A
#BOARDMAN SCHOOLN/A         64  43  46  SW17G28 29.95S
#BOARDMAN 8SW   N/A         63  44  50  W26     29.95
#ECHO 8SW       N/A         62  40  44  W23     29.97S
#I-84 EX 198 DOTN/A         63  38  39  E23     N/A
#UMATILLA SCHOOLN/A         65  49  56  W7      29.98F
#UMATILLA       N/A         65  41  41  SW14    29.88S
$$

ORZ507-270310-
NORTHERN FOOTHILLS OF THE BLUES

CITY            SKY/WX      TMP DP  RH  WIND    PRES   REMARKS
PENDLETON AIRPT SUNNY       63  36  36  W23G32  29.97S
#ADAMS 3WNW     N/A         61  39  44  SW15    29.96R
#CAYUSE         N/A         61  39  44  W16     29.95R
#HELIX SCHOOL   N/A         61  39  44  W14G25  29.95S
#HELIX 3N       N/A         58  39  49  SW15G26 29.96R
#HOLDMAN 5SE    N/A         61  41  48  W12     29.98R
#HOLDMAN 6E     N/A         60  39  46  NE13    29.77R
#M-F GROVE ELEM N/A         65  33  30  SW10    29.95S
#M-FREEWATER 5SEN/A         63  41  44  SW5     29.97S
#PENDLETON DNTN N/A         65  34  31  W3      30.01S
#PDT AQUATIC CTRN/A         64  35  34  W15     30.02R
#PDT SUNRIDGE   N/A         63  39  41  SW12    30.00R
#PENDLETON 7NW  N/A         63  43  48  W12G24  32.27S
#PILOT ROCK 1S  N/A         62  36  38  SW1     30.00R
#PILOT ROCK     N/A         63  38  39  W14     30.02R
#TUTUILLA       N/A         62  40  44  CALM    29.98R
#UMAPINE 2E     N/A         66  43  43  SW7     29.93S
#WESTON SCHOOL  N/A         60  34  37  N10     29.86F

$$

ORZ508-270310-
SOUTHERN FOOTHILLS OF THE BLUES

CITY            SKY/WX      TMP DP  RH  WIND    PRES   REMARKS
LEXINGTON       PTCLDY      57  37  47  W22G29  30.06R
#AJAX           N/A         52  34  50  S15G33  27.80S
#CONDON SCHOOL  N/A         52  39  61  W15G25  30.01R
#CONDON 5W      N/A         48  36  63  NW20G29 30.01F WCI 41
#FOSSIL SCHOOL  N/A         57  39  51  NW7     30.00R
#HEPPNER EOC    N/A         56  38  51  W16G29  29.94R
#HEPPNER 4NE    N/A         53  37  54  W16G26  29.99R
#LEXINGTON 2SE  N/A         60  39  46  W21G31  30.00R
#OLEX 4N        N/A         57  41  55  W30G38  30.01S
#RUGGS 5NE      N/A         54  34  47  W21     30.23R
#RUGGS 2SW      N/A         55  38  53  NW17G25 30.01S

$$

ORZ502-503-270310-
BLUE MOUNTAINS

CITY            SKY/WX      TMP DP  RH  WIND    PRES   REMARKS
MEACHAM         PTCLDY      55  33  43  VRB6    30.03R
#BATTLE MTN DOT N/A         51  39  63  NW1     N/A
#CUTSFORTH PARK N/A         50  37  61  E1      29.81R
#GREENHORN 9SW  N/A         61  30  31  W3      26.18F
#HARDMAN 10S    N/A         61  34  36  N5      30.22S
#HEPPNER 15SE   N/A         48  37  65  W2      29.95R
#LADD CYN SMT   N/A         58  31  36  NW8     N/A
#LADD CREEK ODOTN/A         61  38  42  N3      N/A
#LONG CREEK HS  N/A         60  36  41  CALM    N/A
#N POWDER DOT   N/A         60  39  46  N16     N/A
#PIKES PEAK     N/A         54  33  45  SW21G28 27.99S
#TOLLGATE       N/A         47  35  63  S5      29.89F
#TROY SCHOOL    N/A         69  42  37  SW3     29.75R
#UKIAH          N/A         60  42  51  W5      29.86F
#WESTON 4E      N/A         54  37  52  SW7     29.93F
$$

ORZ505-270310-
JOHN DAY BASIN

CITY            SKY/WX      TMP DP  RH  WIND    PRES   REMARKS
JOHN DAY        N/A         N/A N/A N/A MISG    N/A
#DAYVILLE SCHOOLN/A         68  32  26  N7      29.95S
#MITCHELL       N/A         60  41  49  N5      30.19R
#MITCHELL 8NW   N/A         57  31  37  N7      30.19R
#MONUMENT HS    N/A         67  31  26  W12     29.93S
#MT. VERNON 5SE N/A         60  34  37  CALM    29.96R
#SPRAY SCHOOL   N/A         66  N/A N/A NW2     N/A
#WINLOCK        N/A         56  38  51  CALM    30.00R
$$

ORZ506-270310-
OCHOCO AND JOHN DAY HIGHLANDS

CITY            SKY/WX      TMP DP  RH  WIND    PRES   REMARKS
#BUCK CREEK DOT N/A         64  28  25  NW20    N/A
#HORSE RIDGE DO N/A         56  33  42  NW16    N/A
#KEYES SMT DOT  N/A         55  34  45  W10     N/A
#PAULINA SCHOOL N/A         64  34  33  NW8     N/A
#PINE MTN OBS   N/A         46  34  63  N9      N/A
#PRAIRIE CITY   N/A         66  33  29  N2      30.11F
#SENECA         N/A         61  N/A N/A N6      N/A
#SENECA 9NW     N/A         57  34  42  CALM    29.91S
$$

ORZ049-270310-
GRANDE RONDE VALLEY

CITY            SKY/WX      TMP DP  RH  WIND    PRES   REMARKS
LA GRANDE       MOCLDY      63  34  34  N10     29.98R
#COVE           N/A         60  47  62  NW2     30.01S
#COVE SCHOOL    N/A         60  43  53  CALM    30.00R
#COVE 6NW       N/A         60  43  53  N6      29.86R
#ELGIN 3N       N/A         61  34  36  CALM    29.97S
#ELGIN 1E       N/A         63  40  43  CALM    N/A
#IMBLER SCHOOL  N/A         60  39  46  N7      29.95R
#ISLAND CITY 4N N/A         58  46  64  CALM    30.20F
#LADD CYN DOT   N/A         62  40  44  NW8     N/A
#UNION 1S       N/A         62  42  48  N7      29.83R
$$

ORZ050-270310-
WALLOWA COUNTY

CITY            SKY/WX      TMP DP  RH  WIND    PRES   REMARKS
JOSEPH AIRPORT  MOCLDY      57  39  51  N3      N/A
#ENTERPRISE AP  N/A         49  29  46  CALM    29.93S
#ENTERPRISE HS  N/A         59  42  53  NW5     29.99R
#IMNAHA SCHOOL  N/A         67  42  40  N1      29.93R
#IMNAHA 10S     N/A         60  43  53  W1      29.95R
#JOSEPH 3N      N/A         56  37  49  N7      30.01S
#JOSEPH 3W      N/A         52  44  74  CALM    29.85S
#LOSTINE 3SE    N/A         57  39  51  N12     29.97F
#MT HOWARD 8000 N/A         42  38  86  SW1     30.07F
#PROMISE 1S     N/A         54  37  52  E12     30.05R
#WALLOWA SCHOOL N/A         58  38  47  N1      29.95S



$$



USA.gov is the U.S. government's official web portal to all federal, state and local government web resources and services.